Home   Weather   Kanab   Past weeks
Flag for USA

Past Weather in Kanab, Utah, USA — Yesterday and Last 2 Weeks

Now
45 °F

Passing clouds.


Feels Like: 45 °F
Forecast: 59 / 34 °F
Wind: No wind

Location: Colorado City Municipal Airport

Current Time: Mar 24, 2019 at 4:03:32 am

Latest Report: Mar 24, 2019 at 3:35 am


Visibility: 10 mi

Pressure: 30.09 "Hg (25.01 "Hg at 1515m altitude)

Humidity: 61%

Dew Point: 32 °F

Location of KanabLocation

Past Weather in Kanab — Graph

°F

Kanab Temperature Yesterday

Maximum temperature yesterday: 61 °F (at 4:15 pm)
Minimum temperature yesterday: 32 °F (at 2:15 am)
Average temperature yesterday: 46 °F

High & Low Weather Summary for the Past Weeks

 TemperatureHumidityPressure
High70 °F (Mar 19, 4:15 pm)100% (Mar 9, 1:15 am)30.36 "Hg (Mar 9, 1:15 am)
Low28 °F (Mar 9, 6:15 am)13% (Mar 19, 3:35 pm)29.56 "Hg (Mar 13, 2:15 am)
Average44 °F59%30.07 "Hg
* Reported Mar 9 1:15 am — Mar 24 2:55 am, Kanab. Weather by CustomWeather, © 2019

Note: Actual official high and low records may vary slightly from our data, if they occured in-between our weather recording intervals... More about our weather records

Advertising

Kanab Weather History for the Previous 24 Hours

Scroll right to see more
 ConditionsComfort  
Time TempWeatherWind HumidityBarometerVisibility
2:55 am
Sun, Mar 24
43 °FPassing clouds.3 mph66%30.09 "Hg10 mi
2:35 am43 °FPassing clouds.No wind71%30.09 "Hg10 mi
2:15 am41 °FPassing clouds.No wind76%30.08 "Hg10 mi
1:55 am45 °FClear.5 mph61%30.08 "Hg10 mi
1:35 am45 °FClear.5 mph61%30.08 "Hg10 mi
1:15 am45 °FClear.5 mph61%30.07 "Hg10 mi
12:55 am43 °FClear.6 mph71%30.08 "Hg10 mi
12:35 am43 °FClear.5 mph71%30.07 "Hg10 mi
12:15 am45 °FClear.7 mph71%30.07 "Hg10 mi
11:55 pm
Sat, Mar 23
43 °FPassing clouds.7 mph76%30.07 "Hg10 mi
11:35 pm45 °FMostly cloudy.6 mph71%30.07 "Hg10 mi
11:15 pm45 °FPassing clouds.No wind71%30.07 "Hg10 mi
10:55 pm46 °FPassing clouds.3 mph66%30.07 "Hg10 mi
10:35 pm46 °FPassing clouds.No wind66%30.07 "Hg10 mi
10:15 pm46 °FPassing clouds.No wind71%30.07 "Hg10 mi
9:55 pm46 °FPassing clouds.6 mph71%30.06 "Hg10 mi
9:35 pm48 °FOvercast.No wind71%30.06 "Hg10 mi
9:15 pm50 °FOvercast.No wind67%30.05 "Hg10 mi
8:55 pm52 °FPassing clouds.No wind62%30.05 "Hg10 mi
8:35 pm52 °FPassing clouds.No wind58%30.05 "Hg10 mi
8:15 pm52 °FPartly cloudy.No wind67%30.05 "Hg10 mi
7:35 pm55 °FPartly sunny.No wind44%30.04 "Hg10 mi
6:55 pm57 °FScattered clouds.No wind41%30.04 "Hg10 mi
6:35 pm59 °FBroken clouds.3 mph39%30.04 "Hg10 mi
6:15 pm59 °FScattered clouds.5 mph39%30.05 "Hg10 mi
5:55 pm59 °FScattered clouds.8 mph39%30.05 "Hg10 mi
5:35 pm61 °FPartly sunny.6 mph36%30.05 "Hg10 mi
5:15 pm59 °FSunny.7 mph36%30.05 "Hg10 mi
4:55 pm59 °FSunny.No wind36%30.06 "Hg10 mi
4:35 pm61 °FScattered clouds.8 mph36%30.07 "Hg10 mi
4:15 pm61 °FPartly sunny.8 mph39%30.08 "Hg10 mi
3:55 pm59 °FMostly cloudy.5 mph39%30.08 "Hg10 mi
3:35 pm57 °FMostly cloudy.5 mph41%30.08 "Hg10 mi
3:15 pm57 °FMore clouds than sun.No wind44%30.08 "Hg10 mi
2:55 pm57 °FMore clouds than sun.No wind44%30.09 "Hg10 mi
2:35 pm55 °FBroken clouds.3 mph47%30.09 "Hg10 mi
2:15 pm55 °FBroken clouds.6 mph47%30.11 "Hg10 mi
1:55 pm55 °FScattered clouds.No wind44%30.11 "Hg10 mi
1:35 pm57 °FScattered clouds.6 mph41%30.12 "Hg10 mi
1:15 pm57 °FScattered clouds.8 mph41%30.12 "Hg10 mi
12:55 pm55 °FScattered clouds.5 mph51%30.13 "Hg10 mi
12:35 pm55 °FSunny.5 mph51%30.14 "Hg10 mi
12:15 pm54 °FSunny.7 mph54%30.15 "Hg10 mi
11:55 am54 °FSunny.5 mph51%30.15 "Hg10 mi
11:35 am54 °FSunny.6 mph58%30.15 "Hg10 mi
11:15 am52 °FSunny.8 mph62%30.16 "Hg10 mi
10:55 am50 °FSunny.6 mph67%30.16 "Hg10 mi
10:35 am48 °FSunny.3 mph76%30.17 "Hg10 mi
10:15 am45 °FSunny.No wind81%30.17 "Hg10 mi
9:55 am43 °FSunny.3 mph87%30.17 "Hg10 mi
9:35 am39 °FScattered clouds.No wind93%30.18 "Hg10 mi
9:15 am37 °FPartly sunny.No wind93%30.17 "Hg10 mi
8:55 am36 °FScattered clouds.No wind100%30.17 "Hg10 mi
8:35 am36 °FSunny.No wind93%30.17 "Hg10 mi
8:15 am34 °FSunny.No wind100%30.16 "Hg10 mi
7:55 am34 °FSunny.No wind100%30.17 "Hg10 mi
7:35 am34 °FSunny.3 mph93%30.16 "Hg10 mi
7:15 am34 °FClear.5 mph93%30.16 "Hg10 mi
6:55 am32 °FClear.3 mph100%30.16 "Hg10 mi
6:35 am34 °FClear.No wind93%30.16 "Hg10 mi
5:55 am34 °FClear.No wind93%30.16 "Hg10 mi
5:35 am34 °FClear.No wind93%30.16 "Hg10 mi
5:15 am34 °FClear.6 mph93%30.16 "Hg10 mi
4:55 am32 °FClear.5 mph100%30.16 "Hg10 mi
4:35 am32 °FClear.No wind100%30.16 "Hg10 mi
Weather by CustomWeather, © 2019

See weather overview